Time,TemperatureF,DewpointF,PressureIn,WindDirection,WindDirectionDegrees,WindSpeedMPH,WindSpeedGustMPH,Humidity,HourlyPrecipIn,Conditions,Clouds,dailyrainin,SoftwareType,DateUTC
2013-02-09 00:00:00,26.6,23.8,30.15,SSE,162,0.0,0.0,89,0.00,,---,0.00,VWS V13.00,2013-02-09 08:00:00,
2013-02-09 00:05:00,26.4,23.6,30.15,SSE,161,0.0,0.0,89,0.00,,---,0.00,VWS V13.00,2013-02-09 08:05:00,
2013-02-09 00:10:00,26.3,23.5,30.15,SSE,161,0.0,0.0,89,0.00,,---,0.00,VWS V13.00,2013-02-09 08:10:00,
2013-02-09 00:15:00,26.1,23.3,30.15,SSE,162,0.0,0.0,89,0.00,,---,0.00,VWS V13.00,2013-02-09 08:15:00,
2013-02-09 00:20:00,26.0,23.2,30.15,SSE,162,0.0,1.0,89,0.00,,---,0.00,VWS V13.00,2013-02-09 08:20:00,
2013-02-09 00:25:00,25.8,23.3,30.14,SSE,162,0.0,1.0,90,0.00,,---,0.00,VWS V13.00,2013-02-09 08:25:00,
2013-02-09 00:30:00,25.6,23.1,30.14,SSE,162,1.0,1.0,90,0.00,,---,0.00,VWS V13.00,2013-02-09 08:30:00,
2013-02-09 00:35:00,25.5,22.7,30.14,SSE,162,0.0,1.0,89,0.00,,---,0.00,VWS V13.00,2013-02-09 08:35:00,
2013-02-09 00:40:00,25.3,22.8,30.14,SSE,162,0.0,2.0,90,0.00,,---,0.00,VWS V13.00,2013-02-09 08:40:00,
2013-02-09 00:45:00,25.1,22.6,30.14,SSE,161,1.0,2.0,90,0.00,,---,0.00,VWS V13.00,2013-02-09 08:45:00,
2013-02-09 00:50:00,25.0,22.5,30.14,SSE,161,1.0,2.0,90,0.00,,---,0.00,VWS V13.00,2013-02-09 08:50:00,
2013-02-09 00:55:00,24.9,22.4,30.14,SSE,162,0.0,2.0,90,0.00,,---,0.00,VWS V13.00,2013-02-09 08:55:00,
2013-02-09 01:00:00,24.8,22.3,30.13,SSE,162,2.0,2.0,90,0.00,,---,0.00,VWS V13.00,2013-02-09 09:00:00,
2013-02-09 01:05:00,24.8,22.5,30.13,SSE,162,2.0,2.0,91,0.00,,---,0.00,VWS V13.00,2013-02-09 09:05:00,
2013-02-09 01:10:00,24.8,22.5,30.13,SSE,161,0.0,2.0,91,0.00,,---,0.00,VWS V13.00,2013-02-09 09:10:00,
2013-02-09 01:15:00,24.9,22.6,30.13,SSE,161,0.0,2.0,91,0.00,,---,0.00,VWS V13.00,2013-02-09 09:15:00,
2013-02-09 01:20:00,25.0,22.8,30.13,SSE,162,0.0,2.0,91,0.00,,---,0.00,VWS V13.00,2013-02-09 09:20:00,
2013-02-09 01:25:00,25.1,22.9,30.13,SSE,162,1.0,2.0,91,0.00,,---,0.00,VWS V13.00,2013-02-09 09:25:00,
2013-02-09 01:30:00,25.2,23.0,30.13,SSE,162,2.0,2.0,91,0.00,,---,0.00,VWS V13.00,2013-02-09 09:30:00,
2013-02-09 01:35:00,25.3,23.3,30.14,SSE,162,0.0,2.0,92,0.00,,---,0.00,VWS V13.00,2013-02-09 09:35:00,
2013-02-09 01:40:00,25.4,23.4,30.14,SSE,161,1.0,2.0,92,0.00,,---,0.00,VWS V13.00,2013-02-09 09:40:00,
2013-02-09 01:45:00,25.5,23.5,30.14,SSE,161,1.0,2.0,92,0.00,,---,0.00,VWS V13.00,2013-02-09 09:45:00,
2013-02-09 01:50:00,25.6,23.6,30.14,SSE,162,1.0,2.0,92,0.00,,---,0.00,VWS V13.00,2013-02-09 09:50:00,
2013-02-09 01:55:00,25.8,23.8,30.14,SSE,162,2.0,3.0,92,0.00,,---,0.00,VWS V13.00,2013-02-09 09:55:00,
2013-02-09 02:00:00,25.9,23.9,30.14,SSE,162,1.0,2.0,92,0.00,,---,0.00,VWS V13.00,2013-02-09 10:00:00,
2013-02-09 02:05:00,26.0,24.0,30.14,SSE,161,0.0,2.0,92,0.00,,---,0.00,VWS V13.00,2013-02-09 10:05:00,
2013-02-09 02:10:00,26.1,24.1,30.14,SSE,161,0.0,2.0,92,0.00,,---,0.00,VWS V13.00,2013-02-09 10:10:00,
2013-02-09 02:15:00,26.2,24.5,30.14,SSE,162,0.0,2.0,93,0.00,,---,0.00,VWS V13.00,2013-02-09 10:15:00,
2013-02-09 02:20:00,26.3,24.6,30.14,SSE,162,0.0,2.0,93,0.00,,---,0.00,VWS V13.00,2013-02-09 10:20:00,
2013-02-09 02:25:00,26.4,24.6,30.14,SSE,161,0.0,2.0,93,0.00,,---,0.00,VWS V13.00,2013-02-09 10:25:00,
2013-02-09 02:30:00,26.6,24.9,30.13,SSE,162,2.0,3.0,93,0.00,,---,0.00,VWS V13.00,2013-02-09 10:30:00,
2013-02-09 02:35:00,26.7,25.0,30.14,SSE,162,1.0,3.0,93,0.00,,---,0.00,VWS V13.00,2013-02-09 10:35:00,
2013-02-09 02:40:00,26.8,25.0,30.13,SSE,161,1.0,3.0,93,0.00,,---,0.00,VWS V13.00,2013-02-09 10:40:00,
2013-02-09 02:45:00,26.9,25.1,30.13,SSE,162,0.0,3.0,93,0.00,,---,0.00,VWS V13.00,2013-02-09 10:45:00,
2013-02-09 02:50:00,27.0,25.2,30.12,SSE,162,0.0,3.0,93,0.00,,---,0.00,VWS V13.00,2013-02-09 10:50:00,
2013-02-09 02:55:00,27.0,25.2,30.12,SSE,161,0.0,3.0,93,0.00,,---,0.00,VWS V13.00,2013-02-09 10:55:00,
2013-02-09 03:00:00,27.1,25.4,30.12,SSE,162,0.0,0.0,93,0.00,,---,0.00,VWS V13.00,2013-02-09 11:00:00,
2013-02-09 03:05:00,27.1,25.4,30.12,SSE,162,0.0,0.0,93,0.00,,---,0.00,VWS V13.00,2013-02-09 11:05:00,
2013-02-09 03:10:00,27.2,25.5,30.12,SSE,162,0.0,0.0,93,0.00,,---,0.00,VWS V13.00,2013-02-09 11:10:00,
2013-02-09 03:15:00,27.3,25.5,30.12,SSE,162,0.0,0.0,93,0.00,,---,0.00,VWS V13.00,2013-02-09 11:15:00,
2013-02-09 03:20:00,27.3,25.5,30.12,SSE,162,0.0,0.0,93,0.00,,---,0.00,VWS V13.00,2013-02-09 11:20:00,
2013-02-09 03:25:00,27.4,25.6,30.12,SSE,161,0.0,0.0,93,0.00,,---,0.00,VWS V13.00,2013-02-09 11:25:00,
2013-02-09 03:30:00,27.4,25.6,30.12,SSE,161,0.0,0.0,93,0.00,,---,0.00,VWS V13.00,2013-02-09 11:30:00,
2013-02-09 03:35:00,27.5,25.8,30.12,SSE,162,0.0,0.0,93,0.00,,---,0.00,VWS V13.00,2013-02-09 11:35:00,
2013-02-09 03:40:00,27.5,27.5,30.12,SSE,162,0.0,0.0,100,0.00,,---,0.00,VWS V13.00,2013-02-09 11:40:00,
2013-02-09 03:45:00,27.5,25.8,30.12,SSE,162,0.0,0.0,93,0.00,,---,0.00,VWS V13.00,2013-02-09 11:45:00,
2013-02-09 03:50:00,27.6,25.8,30.11,SSE,161,0.0,0.0,93,0.00,,---,0.00,VWS V13.00,2013-02-09 11:50:00,
2013-02-09 03:55:00,27.6,25.8,30.11,SSE,162,0.0,0.0,93,0.00,,---,0.00,VWS V13.00,2013-02-09 11:55:00,
2013-02-09 04:00:00,27.6,25.8,30.12,SSE,162,0.0,0.0,93,0.00,,---,0.00,VWS V13.00,2013-02-09 12:00:00,
2013-02-09 04:05:00,27.7,25.9,30.12,SSE,162,0.0,0.0,93,0.00,,---,0.00,VWS V13.00,2013-02-09 12:05:00,
2013-02-09 04:10:00,27.7,25.9,30.12,SSE,162,0.0,1.0,93,0.00,,---,0.00,VWS V13.00,2013-02-09 12:10:00,
2013-02-09 04:15:00,27.8,26.0,30.12,SSE,162,0.0,2.0,93,0.00,,---,0.00,VWS V13.00,2013-02-09 12:15:00,
2013-02-09 04:20:00,27.8,26.0,30.12,SSE,162,1.0,2.0,93,0.00,,---,0.00,VWS V13.00,2013-02-09 12:20:00,
2013-02-09 04:25:00,27.9,26.1,30.12,SSE,161,0.0,2.0,93,0.00,,---,0.00,VWS V13.00,2013-02-09 12:25:00,
2013-02-09 04:30:00,28.0,26.2,30.12,SSE,162,0.0,1.0,93,0.00,,---,0.00,VWS V13.00,2013-02-09 12:30:00,
2013-02-09 04:35:00,28.1,26.3,30.13,SSE,162,0.0,3.0,93,0.00,,---,0.00,VWS V13.00,2013-02-09 12:35:00,
2013-02-09 04:40:00,28.1,26.3,30.13,SSE,162,0.0,3.0,93,0.00,,---,0.00,VWS V13.00,2013-02-09 12:40:00,
2013-02-09 04:45:00,28.2,26.4,30.13,SSE,162,0.0,3.0,93,0.00,,---,0.00,VWS V13.00,2013-02-09 12:45:00,
2013-02-09 04:50:00,28.2,26.4,30.14,SSE,161,0.0,3.0,93,0.00,,---,0.00,VWS V13.00,2013-02-09 12:50:00,
2013-02-09 04:55:00,28.2,26.4,30.13,SSE,162,0.0,3.0,93,0.00,,---,0.00,VWS V13.00,2013-02-09 12:55:00,
2013-02-09 05:00:00,28.3,26.5,30.14,SSE,162,0.0,0.0,93,0.00,,---,0.00,VWS V13.00,2013-02-09 13:00:00,
2013-02-09 05:05:00,28.3,26.5,30.13,SSE,161,0.0,0.0,93,0.00,,---,0.00,VWS V13.00,2013-02-09 13:05:00,
2013-02-09 05:10:00,28.3,26.5,30.13,SSE,161,0.0,2.0,93,0.00,,---,0.00,VWS V13.00,2013-02-09 13:10:00,
2013-02-09 05:15:00,28.3,26.5,30.12,SSE,162,0.0,2.0,93,0.00,,---,0.00,VWS V13.00,2013-02-09 13:15:00,
2013-02-09 05:20:00,28.3,26.8,30.13,SSE,162,0.0,2.0,94,0.00,,---,0.00,VWS V13.00,2013-02-09 13:20:00,
2013-02-09 05:25:00,28.4,26.9,30.13,SSE,162,0.0,2.0,94,0.00,,---,0.00,VWS V13.00,2013-02-09 13:25:00,
2013-02-09 05:30:00,28.4,26.6,30.13,SSE,161,0.0,0.0,93,0.00,,---,0.00,VWS V13.00,2013-02-09 13:30:00,
2013-02-09 05:35:00,28.4,26.9,30.13,SSE,162,0.0,0.0,94,0.00,,---,0.00,VWS V13.00,2013-02-09 13:35:00,
2013-02-09 05:40:00,28.4,26.9,30.14,SSE,162,0.0,0.0,94,0.00,,---,0.00,VWS V13.00,2013-02-09 13:40:00,
2013-02-09 05:45:00,28.4,26.9,30.14,SSE,162,0.0,0.0,94,0.00,,---,0.00,VWS V13.00,2013-02-09 13:45:00,
2013-02-09 05:50:00,28.4,26.9,30.13,SSE,162,0.0,0.0,94,0.00,,---,0.00,VWS V13.00,2013-02-09 13:50:00,
2013-02-09 05:55:00,28.4,26.9,30.13,SSE,161,1.0,2.0,94,0.00,,---,0.00,VWS V13.00,2013-02-09 13:55:00,
2013-02-09 06:00:00,28.4,26.9,30.13,SSE,161,2.0,2.0,94,0.00,,---,0.00,VWS V13.00,2013-02-09 14:00:00,
2013-02-09 06:05:00,28.4,26.9,30.13,SSE,162,0.0,2.0,94,0.00,,---,0.00,VWS V13.00,2013-02-09 14:05:00,
2013-02-09 06:10:00,28.4,26.9,30.13,SSE,161,1.0,2.0,94,0.00,,---,0.00,VWS V13.00,2013-02-09 14:10:00,
2013-02-09 06:15:00,28.3,26.8,30.13,SSE,161,2.0,2.0,94,0.00,,---,0.00,VWS V13.00,2013-02-09 14:15:00,
2013-02-09 06:20:00,28.3,26.5,30.12,SSE,162,3.0,3.0,93,0.00,,---,0.00,VWS V13.00,2013-02-09 14:20:00,
2013-02-09 06:25:00,28.2,26.4,30.12,SSE,162,1.0,5.0,93,0.00,,---,0.00,VWS V13.00,2013-02-09 14:25:00,
2013-02-09 06:30:00,28.1,26.3,30.12,SSE,162,3.0,4.0,93,0.00,,---,0.00,VWS V13.00,2013-02-09 14:30:00,
2013-02-09 06:35:00,27.9,26.1,30.12,SSE,161,3.0,5.0,93,0.00,,---,0.00,VWS V13.00,2013-02-09 14:35:00,
2013-02-09 06:40:00,27.7,25.9,30.12,SSE,161,0.0,5.0,93,0.00,,---,0.00,VWS V13.00,2013-02-09 14:40:00,
2013-02-09 06:45:00,27.6,25.8,30.13,SSE,162,0.0,5.0,93,0.00,,---,0.00,VWS V13.00,2013-02-09 14:45:00,
2013-02-09 06:50:00,27.5,25.8,30.13,SSE,162,0.0,5.0,93,0.00,,---,0.00,VWS V13.00,2013-02-09 14:50:00,
2013-02-09 06:55:00,27.5,27.5,30.13,SSE,161,0.0,5.0,100,0.00,,---,0.00,VWS V13.00,2013-02-09 14:55:00,
2013-02-09 07:00:00,27.5,25.8,30.14,SSE,162,0.0,0.0,93,0.00,,---,0.00,VWS V13.00,2013-02-09 15:00:00,
2013-02-09 07:05:00,27.4,25.6,30.14,SSE,162,0.0,1.0,93,0.00,,---,0.00,VWS V13.00,2013-02-09 15:05:00,
2013-02-09 07:10:00,27.4,25.6,30.14,SSE,161,1.0,2.0,93,0.00,,---,0.00,VWS V13.00,2013-02-09 15:10:00,
2013-02-09 07:15:00,27.4,25.6,30.14,SSE,162,2.0,2.0,93,0.00,,---,0.00,VWS V13.00,2013-02-09 15:15:00,
2013-02-09 07:20:00,27.3,25.5,30.15,SSE,162,1.0,3.0,93,0.00,,---,0.00,VWS V13.00,2013-02-09 15:20:00,
2013-02-09 07:25:00,27.3,25.5,30.15,SSE,162,2.0,3.0,93,0.00,,---,0.00,VWS V13.00,2013-02-09 15:25:00,
2013-02-09 07:30:00,27.2,25.5,30.15,SSE,162,1.0,2.0,93,0.00,,---,0.00,VWS V13.00,2013-02-09 15:30:00,
2013-02-09 07:35:00,27.1,25.4,30.15,SSE,161,2.0,2.0,93,0.00,,---,0.00,VWS V13.00,2013-02-09 15:35:00,
2013-02-09 07:40:00,27.1,25.4,30.15,SSE,162,0.0,2.0,93,0.00,,---,0.00,VWS V13.00,2013-02-09 15:40:00,
2013-02-09 07:45:00,27.1,25.4,30.16,SSE,162,2.0,2.0,93,0.00,,---,0.00,VWS V13.00,2013-02-09 15:45:00,
2013-02-09 07:50:00,27.1,25.4,30.16,SSE,161,0.0,2.0,93,0.00,,---,0.00,VWS V13.00,2013-02-09 15:50:00,
2013-02-09 07:55:00,27.2,25.5,30.16,SSE,162,2.0,3.0,93,0.00,,---,0.00,VWS V13.00,2013-02-09 15:55:00,
2013-02-09 08:00:00,27.3,25.5,30.16,SSE,161,0.0,0.0,93,0.00,,---,0.00,VWS V13.00,2013-02-09 16:00:00,
2013-02-09 08:05:00,27.3,25.5,30.16,SSE,162,0.0,2.0,93,0.00,,---,0.00,VWS V13.00,2013-02-09 16:05:00,
2013-02-09 08:10:00,27.4,25.6,30.16,SSE,162,0.0,2.0,93,0.00,,---,0.00,VWS V13.00,2013-02-09 16:10:00,
2013-02-09 08:15:00,27.5,25.8,30.16,SSE,161,0.0,2.0,93,0.00,,---,0.00,VWS V13.00,2013-02-09 16:15:00,
2013-02-09 08:20:00,27.6,25.8,30.15,SSE,162,0.0,2.0,93,0.00,,---,0.00,VWS V13.00,2013-02-09 16:20:00,
2013-02-09 08:25:00,27.7,25.9,30.15,SSE,161,0.0,2.0,93,0.00,,---,0.00,VWS V13.00,2013-02-09 16:25:00,
2013-02-09 08:30:00,27.8,26.3,30.15,SSE,162,0.0,0.0,94,0.00,,---,0.00,VWS V13.00,2013-02-09 16:30:00,
2013-02-09 08:35:00,28.0,26.5,30.15,SSE,161,0.0,0.0,94,0.00,,---,0.00,VWS V13.00,2013-02-09 16:35:00,
2013-02-09 08:40:00,28.1,26.3,30.15,SSE,161,0.0,0.0,93,0.00,,---,0.00,VWS V13.00,2013-02-09 16:40:00,
2013-02-09 08:45:00,28.2,26.4,30.15,SSE,162,0.0,0.0,93,0.00,,---,0.00,VWS V13.00,2013-02-09 16:45:00,
2013-02-09 08:50:00,28.3,26.5,30.15,SSE,162,0.0,1.0,93,0.00,,---,0.00,VWS V13.00,2013-02-09 16:50:00,
2013-02-09 08:55:00,28.4,26.9,30.15,SSE,161,0.0,2.0,94,0.00,,---,0.00,VWS V13.00,2013-02-09 16:55:00,
2013-02-09 09:00:00,28.5,27.0,30.14,SSE,161,0.0,1.0,94,0.00,,---,0.00,VWS V13.00,2013-02-09 17:00:00,
2013-02-09 09:05:00,28.7,27.2,30.14,SSE,162,0.0,1.0,94,0.00,,---,0.00,VWS V13.00,2013-02-09 17:05:00,
2013-02-09 09:10:00,28.8,27.3,30.14,SSE,162,0.0,1.0,94,0.00,,---,0.00,VWS V13.00,2013-02-09 17:10:00,
2013-02-09 09:15:00,28.9,27.1,30.14,SSE,161,0.0,2.0,93,0.00,,---,0.00,VWS V13.00,2013-02-09 17:15:00,
2013-02-09 09:20:00,29.0,27.2,30.14,SSE,162,2.0,2.0,93,0.00,,---,0.00,VWS V13.00,2013-02-09 17:20:00,
2013-02-09 09:25:00,29.1,27.3,30.14,SSE,162,1.0,3.0,93,0.00,,---,0.00,VWS V13.00,2013-02-09 17:25:00,
2013-02-09 09:30:00,29.1,27.3,30.14,SSE,162,1.0,1.0,93,0.00,,---,0.00,VWS V13.00,2013-02-09 17:30:00,
2013-02-09 09:35:00,29.2,27.4,30.14,SSE,162,0.0,2.0,93,0.00,,---,0.00,VWS V13.00,2013-02-09 17:35:00,
2013-02-09 09:40:00,29.2,27.4,30.14,SSE,161,0.0,2.0,93,0.00,,---,0.00,VWS V13.00,2013-02-09 17:40:00,
2013-02-09 09:45:00,29.2,27.4,30.14,SSE,162,0.0,2.0,93,0.00,,---,0.00,VWS V13.00,2013-02-09 17:45:00,
2013-02-09 09:50:00,29.3,27.5,30.13,SSE,162,2.0,3.0,93,0.00,,---,0.00,VWS V13.00,2013-02-09 17:50:00,
2013-02-09 09:55:00,29.4,27.6,30.13,SSE,162,0.0,3.0,93,0.00,,---,0.00,VWS V13.00,2013-02-09 17:55:00,
2013-02-09 10:00:00,29.5,27.7,30.13,SSE,162,0.0,0.0,93,0.00,,---,0.00,VWS V13.00,2013-02-09 18:00:00,
2013-02-09 10:05:00,29.6,27.8,30.14,SSE,161,0.0,1.0,93,0.00,,---,0.00,VWS V13.00,2013-02-09 18:05:00,
2013-02-09 10:10:00,29.7,27.9,30.14,SSE,162,0.0,2.0,93,0.00,,---,0.00,VWS V13.00,2013-02-09 18:10:00,
2013-02-09 10:15:00,29.7,27.9,30.14,SSE,162,0.0,2.0,93,0.00,,---,0.00,VWS V13.00,2013-02-09 18:15:00,
2013-02-09 10:20:00,29.8,28.0,30.14,SSE,162,1.0,2.0,93,0.00,,---,0.00,VWS V13.00,2013-02-09 18:20:00,
2013-02-09 10:25:00,29.9,28.1,30.14,SSE,162,0.0,2.0,93,0.00,,---,0.00,VWS V13.00,2013-02-09 18:25:00,
2013-02-09 10:30:00,30.0,28.2,30.14,SSE,161,0.0,0.0,93,0.00,,---,0.00,VWS V13.00,2013-02-09 18:30:00,
2013-02-09 10:35:00,30.1,28.3,30.14,SSE,161,0.0,3.0,93,0.00,,---,0.00,VWS V13.00,2013-02-09 18:35:00,
2013-02-09 10:40:00,30.3,28.5,30.14,SSE,161,0.0,3.0,93,0.00,,---,0.00,VWS V13.00,2013-02-09 18:40:00,
2013-02-09 10:45:00,30.5,28.7,30.14,SSE,161,0.0,3.0,93,0.00,,---,0.00,VWS V13.00,2013-02-09 18:45:00,
2013-02-09 10:50:00,30.6,28.8,30.13,SSE,162,0.0,3.0,93,0.00,,---,0.00,VWS V13.00,2013-02-09 18:50:00,
2013-02-09 10:55:00,30.7,28.7,30.13,SSE,162,0.0,3.0,92,0.00,,---,0.00,VWS V13.00,2013-02-09 18:55:00,
2013-02-09 11:00:00,30.9,29.1,30.13,SSE,162,0.0,2.0,93,0.00,,---,0.00,VWS V13.00,2013-02-09 19:00:00,
2013-02-09 11:05:00,31.1,29.0,30.13,SSE,161,0.0,4.0,92,0.00,,---,0.00,VWS V13.00,2013-02-09 19:05:00,
2013-02-09 11:10:00,31.3,29.2,30.13,SSE,162,0.0,4.0,92,0.00,,---,0.00,VWS V13.00,2013-02-09 19:10:00,
2013-02-09 11:15:00,31.4,29.4,30.13,SSE,162,0.0,4.0,92,0.00,,---,0.00,VWS V13.00,2013-02-09 19:15:00,
2013-02-09 11:20:00,31.6,29.3,30.12,SSE,162,2.0,4.0,91,0.00,,---,0.00,VWS V13.00,2013-02-09 19:20:00,
2013-02-09 11:25:00,31.6,29.3,30.13,SSE,162,1.0,4.0,91,0.00,,---,0.00,VWS V13.00,2013-02-09 19:25:00,
2013-02-09 11:30:00,31.7,29.1,30.13,SSE,161,0.0,1.0,90,0.00,,---,0.00,VWS V13.00,2013-02-09 19:30:00,
2013-02-09 11:35:00,31.8,29.2,30.13,SSE,161,1.0,2.0,90,0.00,,---,0.00,VWS V13.00,2013-02-09 19:35:00,
2013-02-09 11:40:00,31.8,29.2,30.12,SSE,162,0.0,3.0,90,0.00,,---,0.00,VWS V13.00,2013-02-09 19:40:00,
2013-02-09 11:45:00,31.9,29.0,30.12,SSE,161,0.0,3.0,89,0.00,,---,0.00,VWS V13.00,2013-02-09 19:45:00,
2013-02-09 11:50:00,32.0,29.1,30.12,SSE,162,2.0,4.0,89,0.00,,---,0.00,VWS V13.00,2013-02-09 19:50:00,
2013-02-09 11:55:00,32.1,29.2,30.12,SSE,161,1.0,4.0,89,0.00,,---,0.00,VWS V13.00,2013-02-09 19:55:00,
2013-02-09 12:00:00,32.1,29.2,30.12,SSE,162,1.0,2.0,89,0.00,,---,0.00,VWS V13.00,2013-02-09 20:00:00,
2013-02-09 12:05:00,32.2,29.3,30.12,SSE,162,1.0,2.0,89,0.00,,---,0.00,VWS V13.00,2013-02-09 20:05:00,
2013-02-09 12:10:00,32.3,29.4,30.12,SSE,161,1.0,3.0,89,0.00,,---,0.00,VWS V13.00,2013-02-09 20:10:00,
2013-02-09 12:15:00,32.4,29.2,30.12,SSE,161,2.0,6.0,88,0.00,,---,0.00,VWS V13.00,2013-02-09 20:15:00,
2013-02-09 12:20:00,32.5,29.4,30.12,SSW,201,2.0,6.0,88,0.00,,---,0.00,VWS V13.00,2013-02-09 20:20:00,
2013-02-09 12:25:00,32.6,29.5,30.11,WSW,244,2.0,6.0,88,0.00,,---,0.00,VWS V13.00,2013-02-09 20:25:00,
2013-02-09 12:30:00,32.8,29.6,30.11,South,184,3.0,4.0,88,0.00,,---,0.00,VWS V13.00,2013-02-09 20:30:00,
2013-02-09 12:35:00,32.8,29.6,30.11,SW,222,0.0,6.0,88,0.00,,---,0.00,VWS V13.00,2013-02-09 20:35:00,
2013-02-09 12:40:00,32.9,29.7,30.11,SE,132,1.0,6.0,88,0.00,,---,0.00,VWS V13.00,2013-02-09 20:40:00,
2013-02-09 12:44:00,33.0,29.6,30.11,SSE,161,1.0,6.0,87,0.00,,---,0.00,VWS V13.00,2013-02-09 20:44:00,
2013-02-09 12:49:00,33.1,29.7,30.11,West,263,7.0,7.0,87,0.00,,---,0.00,VWS V13.00,2013-02-09 20:49:00,
2013-02-09 12:54:00,33.1,29.4,30.11,SSW,204,3.0,7.0,86,0.00,,---,0.00,VWS V13.00,2013-02-09 20:54:00,
2013-02-09 12:59:00,33.2,29.5,30.11,SSW,211,2.0,2.0,86,0.00,,---,0.00,VWS V13.00,2013-02-09 20:59:00,
2013-02-09 13:04:00,33.2,29.2,30.11,SSE,165,4.0,6.0,85,0.00,,---,0.00,VWS V13.00,2013-02-09 21:04:00,
2013-02-09 13:09:00,33.2,29.2,30.11,South,187,4.0,7.0,85,0.00,,---,0.00,VWS V13.00,2013-02-09 21:09:00,
2013-02-09 13:14:00,33.2,29.2,30.11,SSE,165,2.0,7.0,85,0.00,,---,0.00,VWS V13.00,2013-02-09 21:14:00,
2013-02-09 13:19:00,33.2,29.2,30.11,South,176,1.0,7.0,85,0.00,,---,0.00,VWS V13.00,2013-02-09 21:19:00,
2013-02-09 13:24:00,33.1,29.1,30.11,SE,142,3.0,7.0,85,0.00,,---,0.00,VWS V13.00,2013-02-09 21:24:00,
2013-02-09 13:29:00,33.1,29.1,30.10,SSE,161,3.0,4.0,85,0.00,,---,0.00,VWS V13.00,2013-02-09 21:29:00,
2013-02-09 13:34:00,33.2,29.2,30.10,South,186,4.0,7.0,85,0.00,,---,0.00,VWS V13.00,2013-02-09 21:34:00,
2013-02-09 13:39:00,33.5,29.2,30.10,SSE,158,1.0,7.0,84,0.00,,---,0.00,VWS V13.00,2013-02-09 21:39:00,
2013-02-09 13:44:00,34.4,29.8,30.09,SSE,157,3.0,8.0,83,0.00,,---,0.00,VWS V13.00,2013-02-09 21:44:00,
2013-02-09 13:49:00,34.7,29.5,30.10,SW,221,2.0,8.0,81,0.00,,---,0.00,VWS V13.00,2013-02-09 21:49:00,
2013-02-09 13:54:00,34.8,29.6,30.10,SSW,200,2.0,9.0,81,0.00,,---,0.00,VWS V13.00,2013-02-09 21:54:00,
2013-02-09 13:59:00,35.0,29.5,30.09,South,185,5.0,6.0,80,0.00,,---,0.00,VWS V13.00,2013-02-09 21:59:00,
2013-02-09 14:04:00,35.2,29.7,30.09,SSE,151,5.0,9.0,80,0.00,,---,0.00,VWS V13.00,2013-02-09 22:04:00,
2013-02-09 14:09:00,35.1,29.3,30.09,SE,144,0.0,9.0,79,0.00,,---,0.00,VWS V13.00,2013-02-09 22:09:00,
2013-02-09 14:14:00,35.5,30.0,30.09,SE,138,1.0,9.0,80,0.00,,---,0.00,VWS V13.00,2013-02-09 22:14:00,
2013-02-09 14:19:00,35.9,29.4,30.09,SE,144,2.0,9.0,77,0.00,,---,0.00,VWS V13.00,2013-02-09 22:19:00,
2013-02-09 14:24:00,35.9,29.7,30.09,SSE,167,1.0,9.0,78,0.00,,---,0.00,VWS V13.00,2013-02-09 22:24:00,
2013-02-09 14:29:00,35.9,29.7,30.09,SE,134,6.0,6.0,78,0.00,,---,0.00,VWS V13.00,2013-02-09 22:29:00,
2013-02-09 14:34:00,36.0,29.5,30.09,South,175,4.0,6.0,77,0.00,,---,0.00,VWS V13.00,2013-02-09 22:34:00,
2013-02-09 14:39:00,35.4,28.9,30.09,WSW,250,4.0,6.0,77,0.00,,---,0.00,VWS V13.00,2013-02-09 22:39:00,
2013-02-09 14:44:00,35.5,29.6,30.09,South,186,2.0,6.0,79,0.00,,---,0.00,VWS V13.00,2013-02-09 22:44:00,
2013-02-09 14:49:00,35.7,29.5,30.09,SSW,208,0.0,6.0,78,0.00,,---,0.00,VWS V13.00,2013-02-09 22:49:00,
2013-02-09 14:54:00,35.3,29.1,30.10,SSW,207,1.0,6.0,78,0.00,,---,0.00,VWS V13.00,2013-02-09 22:54:00,
2013-02-09 14:59:00,35.1,29.3,30.10,SSE,165,3.0,3.0,79,0.00,,---,0.00,VWS V13.00,2013-02-09 22:59:00,
2013-02-09 15:04:00,35.0,29.2,30.10,SSE,165,1.0,4.0,79,0.00,,---,0.00,VWS V13.00,2013-02-09 23:04:00,
2013-02-09 15:09:00,34.9,29.1,30.10,SSE,165,0.0,4.0,79,0.00,,---,0.00,VWS V13.00,2013-02-09 23:09:00,
2013-02-09 15:14:00,34.9,29.4,30.10,SSE,165,0.0,4.0,80,0.00,,---,0.00,VWS V13.00,2013-02-09 23:14:00,
2013-02-09 15:19:00,34.8,29.3,30.10,SSE,165,1.0,4.0,80,0.00,,---,0.00,VWS V13.00,2013-02-09 23:19:00,
2013-02-09 15:24:00,34.7,29.2,30.11,SSE,165,1.0,4.0,80,0.00,,---,0.00,VWS V13.00,2013-02-09 23:24:00,
2013-02-09 15:29:00,34.7,29.2,30.10,SSE,165,1.0,2.0,80,0.00,,---,0.00,VWS V13.00,2013-02-09 23:29:00,
2013-02-09 15:34:00,34.6,29.1,30.11,SSE,165,0.0,2.0,80,0.00,,---,0.00,VWS V13.00,2013-02-09 23:34:00,
2013-02-09 15:39:00,34.6,29.1,30.11,SSE,165,0.0,2.0,80,0.00,,---,0.00,VWS V13.00,2013-02-09 23:39:00,
2013-02-09 15:44:00,34.6,29.1,30.11,SSE,165,0.0,2.0,80,0.00,,---,0.00,VWS V13.00,2013-02-09 23:44:00,
2013-02-09 15:49:00,34.8,29.3,30.11,SSE,165,0.0,2.0,80,0.00,,---,0.00,VWS V13.00,2013-02-09 23:49:00,
2013-02-09 15:54:00,34.9,29.4,30.11,SSE,165,0.0,2.0,80,0.00,,---,0.00,VWS V13.00,2013-02-09 23:54:00,
2013-02-09 15:59:00,35.0,29.5,30.11,SSE,165,0.0,0.0,80,0.00,,---,0.00,VWS V13.00,2013-02-09 23:59:00,
2013-02-09 16:04:00,35.1,29.6,30.11,SSE,165,0.0,3.0,80,0.00,,---,0.00,VWS V13.00,2013-02-10 00:04:00,
2013-02-09 16:09:00,35.4,29.9,30.11,SSE,165,0.0,3.0,80,0.00,,---,0.00,VWS V13.00,2013-02-10 00:09:00,
2013-02-09 16:14:00,35.7,29.8,30.11,SSE,165,0.0,3.0,79,0.00,,---,0.00,VWS V13.00,2013-02-10 00:14:00,
2013-02-09 16:19:00,35.8,29.9,30.11,SSE,165,0.0,3.0,79,0.00,,---,0.00,VWS V13.00,2013-02-10 00:19:00,
2013-02-09 16:24:00,35.9,29.7,30.11,SSE,165,0.0,3.0,78,0.00,,---,0.00,VWS V13.00,2013-02-10 00:24:00,
2013-02-09 16:29:00,36.0,29.5,30.12,SSE,165,0.0,0.0,77,0.00,,---,0.00,VWS V13.00,2013-02-10 00:29:00,
2013-02-09 16:34:00,35.9,29.4,30.12,SSE,165,1.0,2.0,77,0.00,,---,0.00,VWS V13.00,2013-02-10 00:34:00,
2013-02-09 16:39:00,35.7,29.2,30.12,SSE,165,0.0,2.0,77,0.00,,---,0.00,VWS V13.00,2013-02-10 00:39:00,
2013-02-09 16:44:00,35.5,29.0,30.11,SSE,165,1.0,3.0,77,0.00,,---,0.00,VWS V13.00,2013-02-10 00:44:00,
2013-02-09 16:49:00,35.1,28.6,30.12,SSE,165,0.0,3.0,77,0.00,,---,0.00,VWS V13.00,2013-02-10 00:49:00,
2013-02-09 16:54:00,34.8,28.6,30.12,SSE,165,0.0,3.0,78,0.00,,---,0.00,VWS V13.00,2013-02-10 00:54:00,
2013-02-09 16:59:00,34.4,28.3,30.13,SSE,165,0.0,0.0,78,0.00,,---,0.00,VWS V13.00,2013-02-10 00:59:00,
2013-02-09 17:04:00,34.3,28.5,30.13,SSE,165,0.0,2.0,79,0.00,,---,0.00,VWS V13.00,2013-02-10 01:04:00,
2013-02-09 17:09:00,33.8,28.0,30.13,SSE,165,0.0,2.0,79,0.00,,---,0.00,VWS V13.00,2013-02-10 01:09:00,
2013-02-09 17:14:00,33.3,27.8,30.14,SSE,165,0.0,2.0,80,0.00,,---,0.00,VWS V13.00,2013-02-10 01:14:00,
2013-02-09 17:19:00,32.9,27.4,30.14,SSE,165,0.0,2.0,80,0.00,,---,0.00,VWS V13.00,2013-02-10 01:19:00,
2013-02-09 17:24:00,32.6,27.4,30.14,SSE,165,0.0,2.0,81,0.00,,---,0.00,VWS V13.00,2013-02-10 01:24:00,
2013-02-09 17:29:00,32.3,27.1,30.15,SSE,165,0.0,0.0,81,0.00,,---,0.00,VWS V13.00,2013-02-10 01:29:00,
2013-02-09 17:34:00,32.0,26.8,30.14,SSE,165,0.0,0.0,81,0.00,,---,0.00,VWS V13.00,2013-02-10 01:34:00,
2013-02-09 17:39:00,31.6,26.8,30.14,SSE,165,1.0,3.0,82,0.00,,---,0.00,VWS V13.00,2013-02-10 01:39:00,
2013-02-09 17:44:00,31.2,26.4,30.15,SSE,165,0.0,3.0,82,0.00,,---,0.00,VWS V13.00,2013-02-10 01:44:00,
2013-02-09 17:49:00,30.9,26.4,30.15,SSE,165,2.0,3.0,83,0.00,,---,0.00,VWS V13.00,2013-02-10 01:49:00,
2013-02-09 17:54:00,30.5,26.0,30.15,SSE,165,2.0,3.0,83,0.00,,---,0.00,VWS V13.00,2013-02-10 01:54:00,
2013-02-09 17:59:00,30.1,25.9,30.16,SSE,165,0.0,0.0,84,0.00,,---,0.00,VWS V13.00,2013-02-10 01:59:00,
2013-02-09 18:05:00,29.8,25.6,30.16,SSE,165,0.0,2.0,84,0.00,,---,0.00,VWS V13.00,2013-02-10 02:05:00,
2013-02-09 18:09:00,29.4,25.2,30.16,SSE,165,1.0,2.0,84,0.00,,---,0.00,VWS V13.00,2013-02-10 02:09:00,
2013-02-09 18:14:00,29.2,25.3,30.17,SSE,165,1.0,2.0,85,0.00,,---,0.00,VWS V13.00,2013-02-10 02:14:00,
2013-02-09 18:19:00,28.9,25.0,30.17,SSE,165,2.0,2.0,85,0.00,,---,0.00,VWS V13.00,2013-02-10 02:19:00,
2013-02-09 18:24:00,28.7,26.7,30.17,SSE,165,1.0,2.0,92,0.00,,---,0.00,VWS V13.00,2013-02-10 02:24:00,
2013-02-09 18:29:00,28.5,24.9,30.17,SSE,165,1.0,2.0,86,0.00,,---,0.00,VWS V13.00,2013-02-10 02:29:00,
2013-02-09 18:34:00,28.3,24.7,30.17,SSE,165,0.0,2.0,86,0.00,,---,0.00,VWS V13.00,2013-02-10 02:34:00,
2013-02-09 18:39:00,28.1,24.7,30.18,SSE,165,0.0,2.0,87,0.00,,---,0.00,VWS V13.00,2013-02-10 02:39:00,
2013-02-09 18:44:00,27.9,24.5,30.18,SSE,165,0.0,2.0,87,0.00,,---,0.00,VWS V13.00,2013-02-10 02:44:00,
2013-02-09 18:49:00,27.8,24.4,30.18,SSE,165,1.0,2.0,87,0.00,,---,0.00,VWS V13.00,2013-02-10 02:49:00,
2013-02-09 18:54:00,27.6,24.5,30.18,SSE,165,2.0,2.0,88,0.00,,---,0.00,VWS V13.00,2013-02-10 02:54:00,
2013-02-09 18:59:00,27.4,24.3,30.18,SSE,165,0.0,0.0,88,0.00,,---,0.00,VWS V13.00,2013-02-10 02:59:00,
2013-02-09 19:04:00,27.2,24.1,30.19,SSE,165,0.0,2.0,88,0.00,,---,0.00,VWS V13.00,2013-02-10 03:04:00,
2013-02-09 19:09:00,27.1,24.0,30.19,SSE,165,0.0,2.0,88,0.00,,---,0.00,VWS V13.00,2013-02-10 03:09:00,
2013-02-09 19:14:00,27.0,23.9,30.19,SSE,165,0.0,2.0,88,0.00,,---,0.00,VWS V13.00,2013-02-10 03:14:00,
2013-02-09 19:19:00,26.8,23.7,30.19,SSE,165,2.0,2.0,88,0.00,,---,0.00,VWS V13.00,2013-02-10 03:19:00,
2013-02-09 19:24:00,26.6,23.5,30.19,WNW,290,3.0,3.0,88,0.00,,---,0.00,VWS V13.00,2013-02-10 03:24:00,
2013-02-09 19:29:00,26.5,23.4,30.20,WNW,290,1.0,2.0,88,0.00,,---,0.00,VWS V13.00,2013-02-10 03:29:00,
2013-02-09 19:34:00,26.3,23.2,30.20,WNW,290,1.0,3.0,88,0.00,,---,0.00,VWS V13.00,2013-02-10 03:34:00,
2013-02-09 19:39:00,26.2,23.4,30.21,WNW,290,0.0,3.0,89,0.00,,---,0.00,VWS V13.00,2013-02-10 03:39:00,
2013-02-09 19:44:00,26.1,23.0,30.21,WNW,290,1.0,3.0,88,0.00,,---,0.00,VWS V13.00,2013-02-10 03:44:00,
2013-02-09 19:49:00,26.0,23.2,30.21,WNW,290,0.0,3.0,89,0.00,,---,0.00,VWS V13.00,2013-02-10 03:49:00,
2013-02-09 19:54:00,25.9,23.1,30.21,WNW,290,1.0,3.0,89,0.00,,---,0.00,VWS V13.00,2013-02-10 03:54:00,
2013-02-09 19:59:00,25.7,22.9,30.21,WNW,290,0.0,0.0,89,0.00,,---,0.00,VWS V13.00,2013-02-10 03:59:00,
2013-02-09 20:04:00,25.6,22.8,30.21,WNW,290,2.0,3.0,89,0.00,,---,0.00,VWS V13.00,2013-02-10 04:04:00,
2013-02-09 20:09:00,25.5,22.7,30.21,WNW,290,2.0,3.0,89,0.00,,---,0.00,VWS V13.00,2013-02-10 04:09:00,
2013-02-09 20:14:00,25.3,22.5,30.21,WNW,290,1.0,3.0,89,0.00,,---,0.00,VWS V13.00,2013-02-10 04:14:00,
2013-02-09 20:19:00,25.2,22.4,30.21,WNW,290,2.0,3.0,89,0.00,,---,0.00,VWS V13.00,2013-02-10 04:19:00,
2013-02-09 20:24:00,25.1,22.3,30.21,WNW,290,2.0,3.0,89,0.00,,---,0.00,VWS V13.00,2013-02-10 04:24:00,
2013-02-09 20:29:00,25.1,22.6,30.21,WNW,290,0.0,2.0,90,0.00,,---,0.00,VWS V13.00,2013-02-10 04:29:00,
2013-02-09 20:34:00,25.0,22.5,30.22,WNW,290,1.0,2.0,90,0.00,,---,0.00,VWS V13.00,2013-02-10 04:34:00,
2013-02-09 20:39:00,24.9,22.4,30.22,WNW,290,2.0,2.0,90,0.00,,---,0.00,VWS V13.00,2013-02-10 04:39:00,
2013-02-09 20:44:00,24.9,22.4,30.22,WNW,290,0.0,2.0,90,0.00,,---,0.00,VWS V13.00,2013-02-10 04:44:00,
2013-02-09 20:49:00,24.9,22.4,30.22,WNW,290,2.0,2.0,90,0.00,,---,0.00,VWS V13.00,2013-02-10 04:49:00,
2013-02-09 20:54:00,24.8,22.3,30.22,WNW,290,1.0,4.0,90,0.00,,---,0.00,VWS V13.00,2013-02-10 04:54:00,
2013-02-09 20:59:00,24.6,22.1,30.22,WNW,290,2.0,2.0,90,0.00,,---,0.00,VWS V13.00,2013-02-10 04:59:00,
2013-02-09 21:00:00,24.7,22.2,30.22,WNW,290,2.0,2.0,90,0.00,,---,0.00,VWS V13.00,2013-02-10 05:00:00,
2013-02-09 21:05:00,24.5,22.0,30.22,WNW,290,0.0,2.0,90,0.00,,---,0.00,VWS V13.00,2013-02-10 05:05:00,
2013-02-09 21:10:00,24.3,21.8,30.22,WNW,290,1.0,2.0,90,0.00,,---,0.00,VWS V13.00,2013-02-10 05:10:00,
2013-02-09 21:15:00,24.2,21.7,30.22,WNW,290,0.0,2.0,90,0.00,,---,0.00,VWS V13.00,2013-02-10 05:15:00,
2013-02-09 21:20:00,24.0,21.5,30.22,WNW,290,2.0,3.0,90,0.00,,---,0.00,VWS V13.00,2013-02-10 05:20:00,
2013-02-09 21:25:00,23.9,21.7,30.22,WNW,290,2.0,3.0,91,0.00,,---,0.00,VWS V13.00,2013-02-10 05:25:00,
2013-02-09 21:30:00,23.9,21.7,30.22,WNW,290,2.0,2.0,91,0.00,,---,0.00,VWS V13.00,2013-02-10 05:30:00,
2013-02-09 21:35:00,23.8,21.6,30.22,WNW,290,1.0,2.0,91,0.00,,---,0.00,VWS V13.00,2013-02-10 05:35:00,
2013-02-09 21:40:00,23.8,21.6,30.22,WNW,290,0.0,2.0,91,0.00,,---,0.00,VWS V13.00,2013-02-10 05:40:00,
2013-02-09 21:45:00,23.7,21.5,30.23,WNW,290,1.0,2.0,91,0.00,,---,0.00,VWS V13.00,2013-02-10 05:45:00,
2013-02-09 21:50:00,23.6,21.4,30.23,WNW,290,0.0,2.0,91,0.00,,---,0.00,VWS V13.00,2013-02-10 05:50:00,
2013-02-09 21:55:00,23.5,21.3,30.23,WNW,290,0.0,2.0,91,0.00,,---,0.00,VWS V13.00,2013-02-10 05:55:00,
2013-02-09 22:00:00,23.4,21.2,30.23,WNW,290,1.0,2.0,91,0.00,,---,0.00,VWS V13.00,2013-02-10 06:00:00,
2013-02-09 22:05:00,23.3,21.1,30.23,WNW,290,0.0,2.0,91,0.00,,---,0.00,VWS V13.00,2013-02-10 06:05:00,
2013-02-09 22:10:00,23.2,21.0,30.23,WNW,290,0.0,2.0,91,0.00,,---,0.00,VWS V13.00,2013-02-10 06:10:00,
2013-02-09 22:15:00,23.1,20.9,30.23,WNW,290,0.0,2.0,91,0.00,,---,0.00,VWS V13.00,2013-02-10 06:15:00,
2013-02-09 22:20:00,23.0,20.8,30.23,WNW,290,1.0,2.0,91,0.00,,---,0.00,VWS V13.00,2013-02-10 06:20:00,
2013-02-09 22:25:00,22.9,20.7,30.23,WNW,290,0.0,2.0,91,0.00,,---,0.00,VWS V13.00,2013-02-10 06:25:00,
2013-02-09 22:30:00,22.7,20.5,30.23,WNW,290,1.0,2.0,91,0.00,,---,0.00,VWS V13.00,2013-02-10 06:30:00,
2013-02-09 22:35:00,22.6,20.4,30.24,WNW,290,1.0,2.0,91,0.00,,---,0.00,VWS V13.00,2013-02-10 06:35:00,
2013-02-09 22:40:00,22.5,20.3,30.24,WNW,290,0.0,2.0,91,0.00,,---,0.00,VWS V13.00,2013-02-10 06:40:00,
2013-02-09 22:45:00,22.5,20.3,30.24,WNW,290,0.0,2.0,91,0.00,,---,0.00,VWS V13.00,2013-02-10 06:45:00,
2013-02-09 22:50:00,22.4,20.2,30.25,WNW,290,2.0,2.0,91,0.00,,---,0.00,VWS V13.00,2013-02-10 06:50:00,
2013-02-09 22:55:00,22.4,20.2,30.25,WNW,290,1.0,2.0,91,0.00,,---,0.00,VWS V13.00,2013-02-10 06:55:00,
2013-02-09 23:00:00,22.3,20.1,30.25,WNW,290,1.0,2.0,91,0.00,,---,0.00,VWS V13.00,2013-02-10 07:00:00,
2013-02-09 23:05:00,22.2,20.0,30.25,WNW,290,1.0,2.0,91,0.00,,---,0.00,VWS V13.00,2013-02-10 07:05:00,
2013-02-09 23:10:00,22.1,19.9,30.25,WNW,290,2.0,2.0,91,0.00,,---,0.00,VWS V13.00,2013-02-10 07:10:00,
2013-02-09 23:15:00,22.0,19.8,30.25,WNW,290,1.0,2.0,91,0.00,,---,0.00,VWS V13.00,2013-02-10 07:15:00,
2013-02-09 23:20:00,21.9,19.7,30.26,WNW,290,1.0,2.0,91,0.00,,---,0.00,VWS V13.00,2013-02-10 07:20:00,
2013-02-09 23:25:00,21.8,19.6,30.26,WNW,290,1.0,2.0,91,0.00,,---,0.00,VWS V13.00,2013-02-10 07:25:00,
2013-02-09 23:30:00,21.6,19.4,30.26,WNW,290,1.0,3.0,91,0.00,,---,0.00,VWS V13.00,2013-02-10 07:30:00,
2013-02-09 23:35:00,21.5,19.3,30.26,WNW,290,2.0,3.0,91,0.00,,---,0.00,VWS V13.00,2013-02-10 07:35:00,
2013-02-09 23:40:00,21.4,19.2,30.27,WNW,290,0.0,3.0,91,0.00,,---,0.00,VWS V13.00,2013-02-10 07:40:00,
2013-02-09 23:45:00,21.4,19.2,30.27,WNW,290,0.0,3.0,91,0.00,,---,0.00,VWS V13.00,2013-02-10 07:45:00,
2013-02-09 23:50:00,21.4,19.2,30.27,WNW,290,0.0,3.0,91,0.00,,---,0.00,VWS V13.00,2013-02-10 07:50:00,
2013-02-09 23:55:00,21.4,19.2,30.27,WNW,290,0.0,3.0,91,0.00,,---,0.00,VWS V13.00,2013-02-10 07:55:00,